www.pogodaiklimat.ru

Погода и климат >> Архив погоды >> Россия >> Ямало-Ненецкий АО >> Гыда


ПОГОДА в Гыде

  • Прогноз погоды в Гыде
  • Монитор погоды в Гыде

АРХИВ ПОГОДЫ в Гыде

Время (UTC), дата Ветер
(напр.,м/с)
 
Видим.   Явления Облачность Т
(С)
Тd
(С)
f
(%)
Тe
(С)
Тes
(С)
Комфортность P
(гПа)
Po
(гПа)
Тmin
(С)
Tmax
(С)
R
(мм)
R24
(мм)
S
(см)
21 16.03 Ю 5 н/о н/о -24.5 -27.2 78 -36 -36 опасность
обморожения
1022.4 1021.3
00 17.03 Ю 4 н/о н/о -24.7 -27.5 77 -35 -35 опасность
обморожения
1023.8 1022.7
03 17.03 Ю 5 н/о н/о -24.4 -27.1 78 -36 -36 опасность
обморожения
1022.4 1021.3 -25.3
06 17.03 Ю 5 н/о н/о -20.7 -23.1 81 -31 -31 опасность
обморожения
1022.4 1021.3 -25.3
09 17.03 Ю 5
{10}
н/о н/о -18.4 -20.6 83 -28 -28 1022.4 1021.3
12 17.03 Ю 7
{11}
н/о н/о -15.7 -17.6 85 -26 -26 1021.1 1020.0
15 17.03 Ю 5 н/о н/о -13.7 -15.4 87 -22 -22 1019.8 1018.7
18 17.03 Ю 4 н/о н/о -12.3 -13.9 88 -19 -19 1019.8 1018.7 -12.4
21 17.03 ЮЗ 5 н/о н/о -10.9 -12.4 89 -19 -19 1019.8 1018.7
00 18.03 ЮЗ 5 н/о н/о -9.7 -11.0 90 -18 -18 1019.8 1018.7
03 18.03 ЮЗ 6
{11}
н/о н/о -9.4 -10.7 90 -18 -18 1019.8 1018.7 -13.7
06 18.03 ЮЗ 5 н/о н/о -9.7 -11.2 89 -18 -18 1019.8 1018.7 -12.4
09 18.03 Ю 5 н/о н/о -10.2 -11.9 87 -18 1019.8 1018.7
12 18.03 Ю 4 н/о н/о -11.0 -12.6 88 -18 -18 1019.8 1018.7
06 21.03 З 5 н/о н/о -9.7 -11.0 90 -18 -18 998.8 997.6 -13.1
09 21.03 СЗ 5 н/о н/о -10.9 -12.4 89 -19 -19 999.9 998.7
12 21.03 СЗ 5 н/о н/о -10.2 -11.6 89 -18 -18 1000.8 999.7
15 21.03 СЗ 5 н/о н/о -13.6 -15.3 87 -22 -22 1003.8 1002.7
18 21.03 СЗ 3 н/о н/о -14.2 -15.9 87 -21 -21 1005.1 1004.0 -9.7
21 21.03 С 1 н/о н/о -12.2 -13.6 89 -14 -14 1006.4 1005.3
00 22.03 В 3 н/о н/о -10.4 -11.9 89 -16 -16 1007.7 1006.7
03 22.03 В 5 н/о н/о -14.5 -16.5 85 -23 -23 1009.1 1008.0 -16.7
06 22.03 В 3 н/о н/о -16.4 -18.5 84 -23 -23 1010.4 1009.3 -17.3
09 22.03 В 2 н/о н/о -15.4 -17.5 84 -20 -20 1013.1 1012.0
12 22.03 В 3 н/о н/о -18.4 -20.6 83 -26 -26 1014.4 1013.3
15 22.03 В 2 н/о н/о -22.2 -24.6 81 -28 -28 1015.8 1014.7
18 22.03 В 3 н/о н/о -25.0 -27.7 78 -34 -34 опасность
обморожения
1015.8 1014.7 -15.4
21 22.03 В 3 н/о н/о -24.8 -27.5 78 -33 -33 опасность
обморожения
1015.8 1014.7
00 23.03 ЮВ 3 н/о н/о -26.0 -28.8 77 -35 1015.8 1014.7
03 23.03 ЮВ 3 н/о н/о -20.1 -22.4 82 -28 1014.4 1013.3 -26.9
06 23.03 Ю 3 н/о н/о -16.9 -19.0 84 -24 1013.1 1012.0 -26.9
09 23.03 Ю 6 н/о н/о -14.3 -16.4 84 -24 1011.8 1010.7
12 23.03 Ю 3 н/о н/о -13.7 -15.5 86 -20 1011.8 1010.7
15 23.03 Ю 3 н/о н/о -12.4 -14.0 88 -18 1010.4 1009.3

 

Местоположение метеостанции Гыда (Ямало-Ненецкий АО, Россия): широта 70.88 долгота 78.47 высота над уровнем моря 8 м.

В архиве по умолчанию представлена погода в Гыде за последнюю неделю. Архивные данные за месяц целиком и за предыдущие месяцы, начиная с января 2011 года, Вы можете получить, выбрав интересующий диапазон дат из раскрывающегося списка и нажав кнопку "Ввод!".


*Определитесь, кто Вы:
робот инопланетянин человек

Внимание! Время в таблицах - всемирное. Для получения местного времени необходимо прибавить поправку, которая равна 5 ч.

Смотрите также архив погоды в соседних городах и на ближайших метеорологических станциях:

Погода в Сопочной Карге (Красноярский край, Россия) (186 км)
Погода в Карауле (Красноярский край, Россия) (196 км)
Погода в Антипаюте (Ямало-Ненецкий АО, Россия) (209 км)
Погода в Сеяхе (Ямало-Ненецкий АО, Россия) (234 км)
Погода в Тамбее (Ямало-Ненецкий АО, Россия) (248 км)
Погода на Острове Диксон (Красноярский край, Россия) (301 км)
Погода в Тазовском (Ямало-Ненецкий АО, Россия) (379 км)
Погода в Потапово (Красноярский край, Россия) (387 км)
Погода в Имени Попова (Ямало-Ненецкий АО, Россия) (396 км)
Погода в Норильске (Красноярский край, Россия) (409 км)

Пояснения к столбцам:

Ветер - указаны скорость ветра в м/с - средняя за 10 мин, порывы в срок и между сроками (в фигурных скобках) и направление, откуда дует ветер: С - северный, СВ - северо-восточный, В - восточный, ЮВ - юго-восточный, Ю - южный, ЮЗ - юго-западный, З - западный, СЗ - северо-западный.
Видимость - горизонтальная дальность видимости в метрах или километрах. При видимости от 1 до 10 км при отсутствии осадков обычно наблюдается дымка, при ухудшении видимости до 1 км и менее - туман. В сухую погоду видимость может ухудшаться дымом, пылью или мглою.
Явления - указаны атмосферные явления, наблюдавшиеся в срок или в последний час перед сроком; фигурными скобками обозначены явления, наблюдавшиеся между сроками (за 1-3 часа до срока); квадратными скобками обозначены град или гололедные отложения с указанием их диаметра в мм.
Облачность - указаны через наклонную черту общая и нижняя облачность в баллах и высота нижней границы облаков в метрах; квадратными скобками обозначены формы облаков: Ci - перистые, Cs - перисто-слоистые, Cc - перисто-кучевые, Ac - высококучевые, As - высокослоистые, Sc - слоисто-кучевые, Ns - слоисто-дождевые, Cu - кучевые, Cb - кучево-дождевые. Подробнее классификацию облаков см. в Атласе облаков (PDF).
T - Температура воздуха - температура, измеренная на высоте 2 м над землей.
Td - Температура точки росы - температура, при понижении до которой содержащийся в воздухе водяной пар достигнет насыщения.
f - Относительная влажность воздуха - влажноcть воздуха, измеренная на высоте 2 м над землей.
Te - Эффективная температура - температура, которую ощущает одетый по сезону человек в тени. Характеристика душности погоды. При расчете учитывается влияние влажности воздуха и скорости ветра на теплоощущения человека.
Tes - Эффективная температура на солнце - температура, которую ощущает человек, с поправкой на солнечный нагрев. Характеристика знойности погоды. Зависит от высоты солнца над горизонтом, облачности и скорости ветра. Ночью, в пасмурную погоду, а также при ветре 12 м/с и более поправка равна нулю.
P - Атмосферное давление - приведенное к уровню моря атмосферное давление.
Po - Атмосферное давление - измеренное на уровне метеостанции атмосферное давление.
Tmin - Минимальная температура - минимум температуры воздуха на высоте 2 м над землей.
Tmax - Максимальная температура - максимум температуры воздуха на высоте 2 м над землей.
R - Количество осадков - Количество выпавших осадков за период времени, мм. При наведении курсора мыши на число - период времени, за который выпало указанное количество осадков.
R24 - Количество осадков - Количество выпавших осадков за 24 часа, мм.
S - Снежный покров - Высота снежного покрова, см. При наведении курсора мыши на число - состояние снежного покрова и степень покрытия местности в баллах.